Location: La Chapelle
(48.3135°N, 1.3085°W)
Time: 03:59:11
(UTC+00:00)

Cosmos 2322 - Pass Details

Date: 03 March 2021
Orbit: 842 x 853 km, 71.0° (Epoch: 17 April)

Event Time Altitude Azimuth Distance (km) Brightness Sun altitude
Rises 19:43:27 0° 193° (SSW) 3,408 6.9 -19.1°
Reaches altitude 10° 19:45:55 10° 190° (S) 2,477 6.1 -19.5°
Maximum altitude 19:51:30 60° 112° (ESE) 974 3.7 -20.4°
Drops below altitude 10° 19:57:07 10° 34° (NE) 2,491 6.0 -21.3°
Sets 19:59:36 0° 31° (NNE) 3,429 6.7 -21.7°
